Location: Conover
(35.7170°N, 81.2250°W)
Time: 02:27:45
(UTC-04:00)

Daily predictions for brighter satellites

Satellite Brightness Start Highest point End
(mag) Time Altitude Azimuth Time Altitude Azimuth Time Altitude Azimuth
CZ-4C R/B 4.4 03:57:54 18° N 03:57:54 18° N 03:59:44 10° NNE
CZ-2D R/B 4.5 04:07:21 10° N 04:08:07 14° N 04:08:07 14° N
Cosmos 1140 Rocket 4.3 04:36:44 47° NE 04:36:44 47° NE 04:40:30 10° NNE
Cosmos 1603 4.0 04:33:49 10° NNW 04:39:25 63° ENE 04:45:02 10° SSE
Atlas Centaur 2 3.2 04:46:12 34° SE 04:46:12 34° SE 04:49:53 10° ESE
MOS 1-B 4.4 04:49:35 10° NNE 04:55:23 73° ESE 04:56:46 52° S
Okean O Rocket 2.8 04:58:11 10° NNE 05:02:15 39° E 05:04:04 26° SSE
Cosmos 1655 Rocket 4.4 04:58:09 10° NNW 05:02:59 47° NW 05:02:59 47° NW
Cosmos 1943 4.0 04:58:53 10° N 05:04:27 51° ENE 05:09:57 10° SE
Cosmos 614 Rocket 4.1 05:06:04 57° NNW 05:06:04 57° NNW 05:10:23 10° NNE
SL-8 R/B 3.7 05:09:30 76° N 05:09:30 76° N 05:14:06 10° NE
Cosmos 2266 Rocket 4.2 05:03:41 10° N 05:10:07 74° E 05:16:30 10° SSE
ADEOS II 1.9 05:05:23 10° N 05:10:39 83° WNW 05:11:27 65° SSW
Cosmos 2263 Rocket 2.1 05:11:24 52° SSW 05:12:52 87° ESE 05:18:37 10° NNE
Cosmos 220 Rocket 3.9 05:17:32 81° SE 05:17:39 82° ESE 05:21:59 10° NNE
DELTA 2 R/B (1) 3.9 05:19:29 44° NW 05:20:56 58° N 05:26:26 10° ENE
SL-24 DEB 4.3 05:17:38 10° N 05:22:17 61° WNW 05:22:17 61° WNW
Cosmos 1437 Rocket 3.3 05:19:24 10° N 05:23:18 59° E 05:27:14 10° SSE
Cosmos 2084 3.1 05:26:06 80° NNW 05:26:19 87° ENE 05:30:18 10° SSE
BREEZE-M R/B 3.0 05:35:48 68° W 05:36:04 76° NW 05:42:39 10° NE
Meteor PRIRODA 4.3 05:36:07 10° NNE 05:39:44 55° E 05:43:22 10° S
GPS 2-05 Rocket1 2.6 05:41:11 64° SSE 05:41:11 64° SSE 05:43:59 10° ESE
Cosmos 1607 4.1 05:38:47 34° WSW 05:41:17 54° WNW 05:47:30 10° NNE
ATLAS 3B R/B 3.3 05:34:02 10° SSW 05:41:22 62° ESE 05:48:28 10° NE
Tiangong 1 2.8 05:43:14 20° N 05:43:33 20° N 05:45:39 10° ENE
CZ-4B R/B 3.0 05:43:17 10° N 05:48:36 81° WNW 05:53:55 10° SSW
CZ-3 R/B 3.3 05:35:17 21° WSW 05:48:46 48° S 05:55:04 10° ESE
Cosmos 332 Rocket 4.2 05:48:19 10° N 05:53:06 64° ENE 05:57:50 10° SSE
ISS -2.7 05:54:23 28° SSW 05:54:23 28° SSW 05:56:37 10° SSE
PSLV R/B 4.0 05:50:07 10° N 05:54:00 37° WNW 05:55:04 32° WSW
Cosmos 1975 Rocket 3.8 05:54:22 31° W 05:54:56 32° WNW 05:58:55 10° NNW
Abrixas rocket 4.0 05:55:09 18° NW 05:55:38 19° NNW 05:58:02 10° NNE
Cosmos 1544 Rocket 3.4 05:52:37 10° N 05:56:58 87° W 06:01:18 10° S
Meteor 1-4 Rocket 3.6 05:54:58 10° N 05:58:21 46° E 06:01:41 10° SSE
Cosmos 371 Rocket 3.8 05:54:00 10° N 05:58:50 61° ENE 06:03:37 10° SSE
Cosmos 1500 3.9 05:57:16 10° NNW 06:00:31 30° W 06:00:31 30° W
Okean-O 3.9 05:57:41 10° NNE 06:01:54 42° E 06:06:06 10° S
Cosmos 1975 3.1 06:00:35 10° NNW 06:04:31 46° W 06:08:26 10° SSW
Cosmos 1455 Rocket 2.9 06:00:39 10° N 06:05:00 79° W 06:09:17 10° S
ATLAS CENTAUR R/B 4.4 06:07:59 10° SE 06:09:39 12° ESE 06:11:18 10° E
USA 215 4.5 06:05:28 10° ESE 06:11:28 41° NE 06:17:29 10° NNW
CZ-2C R/B 3.7 06:11:45 10° S 06:16:24 77° WSW 06:21:09 10° NNW
Cosmos 1536 Rocket 3.5 06:15:55 10° SSW 06:20:10 58° W 06:24:27 10° N
EO 1 Del DPAF 3.5 06:16:39 10° SSE 06:20:26 72° ENE 06:24:15 10° N
CZ-4B R/B 4.4 06:18:28 10° NNW 06:21:06 17° WNW 06:22:09 15° W
Cosmos 468 Rocket 4.0 06:16:37 10° NNW 06:21:58 86° WSW 06:27:16 10° SSE
Cosmos 1553 Rocket 3.9 06:15:58 10° S 06:22:09 85° W 06:28:16 10° N
GEOS 3 Rocket 4.3 06:17:10 10° SE 06:22:12 57° NE 06:27:22 10° NNW
NOSS 3-2 (A) 4.4 06:19:07 10° S 06:24:44 50° ESE 06:30:49 10° NE
Meteor 1-31 Rocket 3.2 06:22:46 10° N 06:26:25 40° WNW 06:30:01 10° SW
Meteor 1-23 Rocket 4.4 06:27:27 10° S 06:33:00 80° E 06:38:35 10° N
Atlas Centaur 2 2.4 06:28:50 12° WSW 06:33:49 46° S 06:38:06 10° ESE
Landsat 4 4.5 06:31:33 10° SSW 06:34:57 31° W 06:38:24 10° NW
Okean O Rocket 3.2 06:35:38 10° NNW 06:38:17 16° WNW 06:40:54 10° WSW
SL-08 R/B 4.4 06:32:32 10° N 06:38:38 76° W 06:44:44 10° S
S3M 4.0 06:34:32 10° SSW 06:40:43 66° W 06:47:00 10° N
Cosmos 1666 3.3 06:38:53 10° NNW 06:42:19 34° W 06:45:46 10° SSW
GOES 2 Rocket 4.4 06:38:49 10° WSW 06:42:24 26° S 06:46:24 10° SE
Cosmos 1763 Rocket 3.7 06:39:05 10° NNW 06:44:25 85° ENE 06:49:44 10° SSE
NOAA 6 4.0 06:39:36 10° N 06:44:47 71° WNW 06:49:56 10° SSW
Cosmos 1743 3.9 06:44:12 10° NW 06:47:20 23° W 06:50:27 10° SW
Cosmos 1943 4.5 06:44:11 10° WNW 06:47:59 19° W 06:51:47 10° SW
USA 238 DEB 3.9 06:41:21 10° SW 06:48:09 58° NW 06:55:03 10° NNE
USA 238 3.9 06:41:27 10° SW 06:48:16 59° NW 06:55:10 10° NNE
Cosmos 304 Rocket 4.5 06:43:51 10° N 06:48:38 61° ENE 06:53:23 10° SSE
Cosmos 1844 Rocket 2.7 06:43:32 10° SSW 06:49:09 69° WNW 06:54:50 10° NNE
